ATLAS CENTAUR 2 DEB, 701

Orbit data source: Space-Track

ATLAS CENTAUR 2 DEB, 701 is space debris in LEO originally from a launch on Wed, 27 Nov 1963 UTC launched from the Air Force Eastern Test Range (AFETR). Debris objects in space refer to the collection of defunct objects orbiting the Earth. Examples of debris include non-operational satellites, rocket bodies, and fragments generated from explosions, collisions, or faulty payload assembly.

Loading next visibility...
ATLAS CENTAUR 2 DEB details
Identifier
701, 1963-047G
Orbit
LEO
Last TLE update14 hours ago
Origin
Flag of USNASA LeRC (US)
ManufacturerGD/Convair
MissionSpacecraft
Bus & MotorCENTAUR PART, Unknown motor
MassUnknown
Launch date (UTC)
1963-11-27 (61 years ago)
Launch vehicleUnknown
Launch site
Air Force Eastern Test Range (AFETR)
Object type
Payload
Rocket body
Debris
Shape & HBRUnknown
Radar Cross Section0.560 m², Medium (>0.1 m² and < 1m²)

Expand to show TLE details & history

TLE from 14 hours ago
0 ATLAS CENTAUR 2 DEB
1 00701U 63047G   25018.17069464  .00001645  00000-0  52370-3 0  9997
2 00701  30.0151 330.1145 0511812 237.3891 117.6294 13.81430593 38893
Epoch: 2025-01-18T04:05Z
Definitive object data (Epoch: 2025-01-18T04:05:48.016Z)
Latitude
Longitude150.84062°
Altitude1,145.953 km
Speed7.188 km/s
True Right ascension22h 00m 27s
True Declination0° 00' 00"
Sunlit
Object was in daylight at TLE epoch
Visualization TLE readout
Latitude6.33927°
Longitude158.7802°
Altitude1,188.738 km
Speed7.146 km/s
Apparent Right ascension01h 14m 07s
Apparent Declination-27° 52' 48"
Sunlit
Object is in daylight
Visualization observer readout
Local Sidereal Time18:55:13
Azimuth109.498° ESE
Elevation-20.849°
Doppler factor1
Orbital elements
Apogee altitude1,338.294 km
Perigee altitude586.88 km
Semi-major axis7,340.724 km
Eccentricity0.0511812
Inclination30.0151°
RAAN330.1145°
Arg. of periapsis237.3891°
True anomaly122.66916°
Mean anomaly117.6294°
Eccentric anomaly120.16476°
Mean motion3.45092 °/min
BSTAR0.0005237
Orbital period104.32 mins
Loading maneuver chart data...

ATLAS CENTAUR 2 DEB Visibility forecast

Observer location: undefined°, undefined

Span
Click to sort rows by Start time (UTC) header in descending order
Start Az.
Max El. time (UTC)
Max El. Az.
Max El.
End time (UTC)
End Az.
11 mins2025-01-18 23:21:06.256Z196.657° SSW2025-01-18 23:27:06.256Z149.088° SSE19.928°2025-01-18 23:32:06.256Z111.619° ESE
13 mins2025-01-19 01:11:06.256Z225.651° WSW2025-01-19 01:17:06.256Z170.077° S31.16°2025-01-19 01:24:06.256Z107.331° ESE
13 mins2025-01-19 03:02:06.256Z244.255° WSW2025-01-19 03:08:06.256Z184.601° SSW33.463°2025-01-19 03:15:06.256Z118.396° SE
11 mins2025-01-19 04:53:06.256Z250.392° W2025-01-19 04:59:06.256Z195.547° SSW25.518°2025-01-19 05:04:06.256Z147.727° SSE
|